Location: Pine Mountain Observatory
(43.7910°N, 120.9377°W)
Time: 01:17:01
(UTC-08:00)

OTV 5 (USA 277) - Pass Details

Date: 18 October 2019
Orbit: 310 x 324 km, 54.5° (Epoch: 17 October)

Event Time Altitude Azimuth Distance (km) Brightness Sun altitude
Exits shadow 05:10:27 17° 53° (NE) 908 ? -24.3°
Drops below altitude 10° 05:11:40 10° 76° (ENE) 1,231 ? -24.1°
Sets 05:13:55 0° 95° (E) 2,058 ? -23.7°
